Location: Detroit
(42.3310°N, 83.0460°W)
Time: 07:22:57
(UTC-05:00)

Vanguard 2 - All Passes

Search period start: 28 November 2023 00:00
Search period end: 08 December 2023 00:00
Orbit: 552 x 2923 km, 32.9° (Epoch: 27 November)

Date Brightness Start Highest point End Pass type
(mag) Time Alt. Az. Time Alt. Az. Time Alt. Az.
28 Nov - 01:23:03 10° WSW 01:34:02 45° S 01:40:48 10° ESE night (unlit)
28 Nov - 03:34:46 10° WSW 03:42:17 33° SSW 03:47:15 10° SE visible
28 Nov - 21:19:04 10° SSW 21:30:13 23° SSE 21:39:01 10° ESE visible
28 Nov - 23:27:11 10° SW 23:40:14 40° SSE 23:48:47 10° E visible
29 Nov - 01:38:33 10° WSW 01:49:33 46° S 01:56:17 10° ESE night (unlit)
29 Nov - 03:50:34 10° W 03:57:37 29° SSW 04:02:24 10° SE visible
29 Nov - 19:34:17 10° SE 19:35:42 10° SE 19:37:04 10° SE visible
29 Nov - 21:32:55 10° SSW 21:45:43 29° SSE 21:55:26 10° E visible
29 Nov - 23:42:18 10° SW 23:55:48 45° S 00:04:28 10° E visible
30 Nov - 01:54:10 10° WSW 02:05:04 46° S 02:11:44 10° ESE night (unlit)
30 Nov - 04:06:30 10° W 04:12:51 24° SSW 04:17:22 10° SSE visible
30 Nov - 19:42:44 10° S 19:51:04 15° SE 19:58:33 10° ESE visible
30 Nov - 21:47:14 10° SSW 22:01:14 35° SSE 22:11:30 10° E visible
30 Nov - 23:57:36 10° WSW 00:11:22 49° S 00:20:04 10° ESE visible
01 Dec - 02:09:51 10° W 02:20:31 44° SSW 02:27:06 10° SE night (unlit)
01 Dec - 04:22:40 10° WSW 04:28:00 19° SW 04:32:01 10° S visible
01 Dec - 19:55:11 10° S 20:06:26 21° SE 20:16:09 10° ESE visible
01 Dec - 22:01:55 10° SW 22:16:46 40° SSE 22:27:22 10° E visible
02 Dec - 00:13:03 10° WSW 00:26:55 52° S 00:35:36 10° ESE visible
02 Dec - 02:25:35 10° W 02:35:54 40° SSW 02:42:23 10° SE night (unlit)
02 Dec - 04:39:18 10° WSW 04:43:03 14° SW 04:46:09 10° S visible
02 Dec - 20:08:39 10° SSW 20:21:48 27° SSE 20:32:51 10° E visible
02 Dec - 22:16:52 10° SW 22:32:18 46° SSE 22:43:06 10° E visible
03 Dec - 00:28:36 10° WSW 00:42:28 53° S 00:51:06 10° ESE night (unlit)
03 Dec - 02:41:23 10° W 02:51:12 35° SSW 02:57:32 10° SE night (unlit)
03 Dec - 18:21:26 10° SSE 18:27:11 12° SE 18:32:46 10° ESE visible
03 Dec - 20:22:41 10° SSW 20:37:11 33° SSE 20:49:07 10° E visible
03 Dec - 22:32:02 10° WSW 22:47:51 51° S 22:58:45 10° E visible
04 Dec - 00:44:13 10° WSW 00:57:58 52° S 01:06:31 10° ESE night (unlit)
04 Dec - 02:57:18 10° W 03:06:26 30° SSW 03:12:30 10° SSE night (unlit)
04 Dec - 18:32:30 10° S 18:42:22 18° SE 18:51:47 10° ESE visible
04 Dec - 20:37:08 10° SW 20:52:36 39° SSE 21:05:06 10° E visible
04 Dec - 22:47:22 10° WSW 23:03:25 54° S 23:14:20 10° E visible
05 Dec - 00:59:54 10° W 01:13:26 50° SSW 01:21:52 10° ESE night (unlit)
05 Dec - 03:13:23 10° W 03:21:31 24° SW 03:27:14 10° SSE night (unlit)
05 Dec - 18:45:23 10° S 18:57:33 23° SE 19:09:03 10° E visible
05 Dec - 20:51:53 10° SW 21:08:03 45° SSE 21:20:56 10° E visible
05 Dec - 23:02:49 10° WSW 23:18:58 56° S 23:29:52 10° ESE visible
06 Dec - 01:15:39 10° W 01:28:49 46° SSW 01:37:08 10° SE night (unlit)
06 Dec - 03:29:45 10° W 03:36:32 19° SW 03:41:35 10° S night (unlit)
06 Dec - 18:59:04 10° SSW 19:12:46 29° SE 19:25:37 10° E visible
06 Dec - 21:06:53 10° SW 21:23:32 50° SSE 21:36:39 10° E visible
06 Dec - 23:18:23 10° WSW 23:34:31 57° S 23:45:21 10° ESE visible
07 Dec - 01:31:27 10° W 01:44:08 41° SSW 01:52:16 10° SE night (unlit)
07 Dec - 03:46:46 10° WSW 03:51:26 14° SW 03:55:16 10° SSW night (unlit)
07 Dec - 17:11:55 10° SSE 17:18:23 13° SE 17:24:58 10° ESE visible
07 Dec - 19:13:15 10° SSW 19:28:01 35° SSE 19:41:50 10° E visible
07 Dec - 21:22:05 10° WSW 21:39:03 54° SSE 21:52:17 10° E visible
